星链-30591 (STARLINK-30591 )

导读 | 豆包AI

STARLINK-30591是美国太空探索技术公司(SpaceX)星链互联网星座的组网卫星,于2023年10月18日发射入轨。它属于星链批量部署的低轨卫星,承担全球覆盖、低延迟宽带互联网服务任务,推动星链完成全球组网进程,助力民生通信、军事应用等多场景互联网接入覆盖。

基本信息
目录编号:
58088
目录名称:
STARLINK-30591
国际标识:
2023-160P
轨道中心:
EARTH
卫星名称:
星链-30591
卫星全名:
星链-30591 (STARLINK-30591 )
卫星状态:
在轨 (已飞行925 天)
发射日期:
2023-10-18 UTC
国别 :
美国 (US)
星等 :
--
轨道信息
数据来源 国际轨道数据
星历时间: 2026-04-29T18:58:59+0800
1天前
查看轨道信息
半长轴: 6861.263km
偏心率: 0.0001575
轨道倾角: 43.000°
近地点辐角 268.444°
升交点赤经 150.870°
平近点角 91.623°
近地点: 482.045km
远地点: 484.207km
周期: 94.268分钟
每日圈数: 15.275544
详细信息
固有亮度:
5
最大亮度:
0.3
卫星平台:
Starlink v2.0 mini
覆盖范围:
全球
运营商:
太空探索技术公司
运营商所在国:
美国
制造商(研发单位):
太空探索技术公司
制造商所在国:
美国
使用方式:
暂无
卫星简介
星链(Starlink)计划是由太空探索技术公司(SpaceX)提出的一个巨型低轨卫星互联网星座项目,计划在2019年至2024年间在太空搭建由约1.2万颗卫星组成的“星链”网络,其中1584颗将部署在地球上空550千米处的近地轨道,并从2020年开始工作。该卫星仍在工作。
2D轨道图
3D轨道图
轨道高度分析图
轨道倾角分析图
轨道综合分析图
查看轨道综合分析图